CW3827 Weather Reports


Display with metric or nautical units.
time (UTC)temp
F
wind
direction
speed
MPH
gust
MPH
rain 1hr
in
rain 24hr
in
rain mn
in
humidity
%
barometer
mb
20260905021511 68 110 6.0 8.0 0.00 0.15 0.15 77 1022.9
20260905020014 66 82 7.0 9.0 0.00 0.15 0.15 87 1022.9
20260905014514 66 50 5.0 7.0 0.00 0.15 0.15 88 1023.0
20260905013027 68 77 5.0 8.0 0.00 0.15 0.15 85 1022.9
20260905011526 69 36 5.0 5.0 0.00 0.15 0.15 81 1023.1
20260905010016 70 82 0.0 0.0 0.01 0.15 0.15 80 1022.8
20260905004519 70 61 0.0 5.0 0.04 0.15 0.15 83 1022.9
20260905003025 71 91 4.0 11.0 0.04 0.15 0.15 80 1022.7
20260905001518 70 91 7.0 11.0 0.04 0.15 0.15 78 1022.6
20260905000011 71 61 7.0 11.0 0.03 0.14 0.14 74 1023.0
20260904234510 75 93 0.0 3.0 0.00 0.11 0.11 63 1022.7
20260904233006 76 58 6.0 10.0 0.00 0.11 0.11 56 1022.5
20260904231503 76 34 6.0 10.0 0.00 0.11 0.11 55 1022.6
20260904230021 76 63 10.0 14.0 0.00 0.11 0.11 57 1022.6
20260904224518 75 43 10.0 13.0 0.00 0.11 0.11 59 1022.6
20260904223016 76 57 13.0 18.0 0.00 0.11 0.11 58 1022.7
20260904221513 74 77 13.0 20.0 0.00 0.11 0.11 63 1022.7
20260904220009 72 55 15.0 22.0 0.00 0.11 0.11 65 1022.8
20260904214504 71 93 17.0 21.0 0.00 0.11 0.11 70 1023.1
20260904213027 69 93 17.0 22.0 0.11 0.11 0.11 75 1023.6
20260904211523 67 70 15.0 25.0 0.11 0.11 0.11 84 1023.9
20260904210026 65 65 16.0 20.0 0.11 0.11 0.11 86 1024.0
20260904204514 63 61 12.0 16.0 0.11 0.11 0.11 84 1024.4
20260904203016 64 86 23.0 34.0 0.00 0.00 0.00 72 1024.6
20260904201508 71 58 20.0 39.0 0.00 0.00 0.00 59 1025.3
20260904200030 80 240 1.0 8.0 0.00 0.00 0.00 44 1024.1
20260904194524 81 296 5.0 11.0 0.00 0.00 0.00 44 1023.6
20260904193026 80 351 5.0 13.0 0.00 0.00 0.00 44 1023.8
20260904191519 81 347 7.0 14.0 0.00 0.00 0.00 44 1023.9
20260904190015 81 28 7.0 12.0 0.00 0.00 0.00 44 1024.0
20260904184534 79 358 3.0 12.0 0.00 0.00 0.00 46 1024.4
20260904183035 78 338 7.0 13.0 0.00 0.00 0.00 47 1024.7
20260904181544 78 323 4.0 14.0 0.00 0.00 0.00 47 1024.8
20260904180027 77 88 8.0 18.0 0.00 0.00 0.00 49 1024.8
20260904174523 77 324 9.0 13.0 0.00 0.00 0.00 49 1025.0
20260904173023 78 8 6.0 13.0 0.00 0.00 0.00 49 1025.2
20260904171531 78 349 8.0 15.0 0.00 0.00 0.00 51 1025.2
20260904170012 77 26 9.0 16.0 0.00 0.00 0.00 52 1025.3
20260904164508 75 324 7.0 14.0 0.00 0.00 0.00 55 1025.3
20260904163003 74 123 9.0 15.0 0.00 0.00 0.00 56 1025.4
20260904161504 75 335 11.0 19.0 0.00 0.00 0.00 55 1025.3
20260904160024 75 343 11.0 18.0 0.00 0.00 0.00 55 1025.2
20260904154517 74 46 10.0 19.0 0.00 0.00 0.00 57 1025.4
20260904153018 74 1 11.0 21.0 0.00 0.00 0.00 58 1025.3
20260904151510 73 60 13.0 19.0 0.00 0.00 0.00 59 1025.1
20260904150007 73 103 11.0 19.0 0.00 0.00 0.00 59 1025.0
20260904144529 73 331 15.0 20.0 0.00 0.00 0.00 60 1025.0
20260904143034 71 355 10.0 14.0 0.00 0.00 0.00 63 1025.1
20260904141524 70 357 10.0 17.0 0.00 0.00 0.00 64 1025.1
20260904140033 70 346 8.0 15.0 0.00 0.00 0.00 65 1024.9
20260904134514 69 329 8.0 14.0 0.00 0.00 0.00 68 1024.6
20260904133009 67 162 4.0 8.0 0.00 0.00 0.00 70 1024.5
20260904131531 65 198 0.0 0.0 0.00 0.00 0.00 71 1024.0
20260904130027 65 274 0.0 0.0 0.00 0.00 0.00 71 1023.9
20260904124527 63 50 0.0 0.0 0.00 0.00 0.00 74 1023.6
20260904123031 64 81 0.0 0.0 0.00 0.00 0.00 72 1023.4
20260904121521 64 58 0.0 6.0 0.00 0.00 0.00 71 1023.4
20260904120015 65 33 5.0 8.0 0.00 0.00 0.00 70 1023.2
20260904114532 64 79 4.0 7.0 0.00 0.00 0.00 72 1023.1
20260904113036 63 72 0.0 4.0 0.00 0.00 0.00 71 1023.0
20260904111530 62 34 0.0 6.0 0.00 0.00 0.00 74 1023.0
20260904110028 64 70 5.0 9.0 0.00 0.00 0.00 67 1022.8
20260904104535 65 160 0.0 6.0 0.00 0.00 0.00 65 1022.9
20260904103023 66 47 0.0 5.0 0.00 0.00 0.00 63 1022.7
20260904101535 67 276 6.0 13.0 0.00 0.00 0.00 61 1022.7
20260904100037 67 235 0.0 1.0 0.00 0.00 0.00 61 1022.5
20260904094507 67 212 0.0 0.0 0.00 0.00 0.00 61 1022.4
20260904093006 67 201 0.0 1.0 0.00 0.00 0.00 58 1022.6
20260904091527 69 317 0.0 0.0 0.00 0.00 0.00 56 1022.7
20260904090023 69 193 0.0 0.0 0.00 0.00 0.00 56 1022.8
20260904084519 69 170 0.0 0.0 0.00 0.00 0.00 55 1022.9
20260904083018 71 169 0.0 0.0 0.00 0.00 0.00 51 1022.7
20260904081511 71 70 0.0 0.0 0.00 0.00 0.00 51 1022.6
20260904080008 72 144 0.0 0.0 0.00 0.00 0.00 52 1022.7
20260904074531 73 142 0.0 0.0 0.00 0.00 0.00 50 1022.6
20260904073027 72 132 0.0 0.0 0.00 0.00 0.00 52 1022.5
20260904071526 72 144 0.0 0.0 0.00 0.00 0.00 52 1022.6
20260904070019 72 137 3.0 7.0 0.00 0.00 0.00 51 1022.6
20260904064512 73 160 6.0 8.0 0.00 0.00 0.00 49 1022.5
20260904063019 74 141 4.0 6.0 0.00 0.00 0.00 48 1022.5
20260904061531 74 135 3.0 6.0 0.00 0.00 0.00 48 1022.5
20260904060028 73 142 3.0 5.0 0.00 0.00 0.00 49 1022.5
20260904054533 72 135 3.0 5.0 0.00 0.00 0.00 54 1022.5
20260904053026 72 128 3.0 4.0 0.00 0.00 0.00 53 1022.4
20260904051518 71 110 6.0 7.0 0.00 0.00 0.00 55 1022.4
20260904050014 72 101 5.0 7.0 0.00 0.00 0.00 55 1022.4
20260904044533 71 108 6.0 7.0 0.00 0.00 0.00 55 1022.5
20260904043031 71 105 5.0 7.0 0.00 0.00 0.00 57 1022.6
20260904041527 71 102 5.0 7.0 0.00 0.00 0.00 56 1022.7
20260904040034 72 105 6.0 8.0 0.00 0.00 0.00 56 1022.6
20260904034529 73 92 3.0 5.0 0.00 0.00 0.00 50 1022.4
20260904033017 74 110 3.0 6.0 0.00 0.00 0.00 48 1022.4
20260904031510 74 158 5.0 7.0 0.00 0.00 0.00 47 1022.3
20260904030010 74 139 4.0 9.0 0.00 0.00 0.00 48 1022.2
20260904024504 75 135 7.0 11.0 0.00 0.00 0.00 47 1022.0
20260904023006 74 116 6.0 8.0 0.00 0.00 0.00 49 1021.8